Hourly Data Report for October 04, 2016

All times are specified in Local Standard Time (LST). Add 1 hour to adjust for Daylight Saving Time where and when it is observed.

HALL BEACH A
NUNAVUT

68°46'33.000" N
81°14'33.000" W
9.10 m
2402354
71293
YUX

Related Data

No related data is available for this station

Download Data

Hourly Data (October 2016)
Hourly Data Report for October 4, 2016
Temp Definition
°C
Dew Point Temp Definition
°C
Rel Hum Definition
%
Wind Dir Definition
10's deg

Wind Spd Definition
km/h
Visibility Definition
km
Stn Press Definition
kPa
Hmdx Definition


Wind Chill Definition


Weather Definition


TIME
00:00 Legend Double Dagger -0.5 -1.2 95 10 24 6.4 99.64   -6 Snow
01:00 Legend Double Dagger -0.2 -0.8 96 12 24 9.7 99.54   -6 Snow
02:00 Legend Double Dagger 0.2 -0.5 95 11 30 16.1 99.50     Rain
03:00 Legend Double Dagger 0.2 -0.2 97 10 32 4.8 99.40     Snow
04:00 Legend Double Dagger 0.2 -0.2 97 10 26 12.9 99.35     Rain
05:00 Legend Double Dagger 0.2 -0.1 98 10 26 4.8 99.31     Snow
06:00 Legend Double Dagger 0.3 0.0 98 10 22 2.8 99.28     Snow
07:00 Legend Double Dagger 0.3 0.0 98 10 24 4.8 99.25     Moderate Rain,Fog
08:00 Legend Double Dagger 0.3 0.0 98 9 22 4.8 99.25     Snow
09:00 Legend Double Dagger 0.3 0.2 99 9 22 3.6 99.25     Rain,Snow
10:00 Legend Double Dagger 0.4 0.1 98 8 24 9.7 99.26     Rain,Fog
11:00 Legend Double Dagger 0.4 0.1 98 8 26 6.4 99.29     Snow
12:00 Legend Double Dagger 0.3 0.0 98 7 22 2.4 99.31     Snow
13:00 Legend Double Dagger 0.4 0.1 98 LegendMM LegendMM LegendMM 99.34     LegendNANA
14:00 Legend Double Dagger 0.3 0.0 98 6 24 2.0 99.38     Snow
15:00 Legend Double Dagger 0.3 0.2 99 6 26 4.8 99.44     Fog
16:00 Legend Double Dagger 0.2 -0.1 98 6 28 4.8 99.50     Fog
17:00 Legend Double Dagger 0.1 -0.2 98 6 30 4.8 99.59     Fog
18:00 Legend Double Dagger 0.1 -0.2 98 5 26 2.8 99.69     Snow
19:00 Legend Double Dagger -0.2 -0.5 98 4 32 2.0 99.77   -7 Snow
20:00 Legend Double Dagger -0.6 -1.0 97 2 39 4.8 99.84   -8 Snow
21:00 Legend Double Dagger -1.1 -1.7 96 1 35 4.8 99.94   -8 Snow
22:00 Legend Double Dagger -1.5 -2.2 95 36 39 6.4 100.02   -9 Snow
23:00 Legend Double Dagger -1.6 -2.4 94 35 37 11.3 100.09   -9 Snow

Notes on Data Quality.

Legend

  • E = Estimated
  • M = Missing
  • NA = Not Available
  • ‡ = Partner data that is not subject to review by the National Climate Archives
Date modified: